Deer Park, WA
on Thursday, February 21, 2013

Thursday
Previous Day Next Day
Daily Summary
 ActualAverageRecord
Temperature
Mean Temperature °F 31°F  
Max Temperature 34°F 41°F 50°F (2003)
Min Temperature 13°F 22°F 9°F (2008)
Degree Days
Heating Degree Days 41 34  
Month to date heating degree days 734 739  
Since 1 July heating degree days 4842 5135  
Cooling Degree Days 0 0  
Month to date cooling degree days 0 0  
Year to date cooling degree days 0 0  
Moisture
Dew Point 25°F   
Average Humidity 92    
Maximum Humidity 100    
Minimum Humidity 84    
Precipitation
Precipitation 0.09 in 0.04 in 0.37 in (1999)
Month to date precipitation 0.24 1.24  
Year to date precipitation 1.74 3.87  
Wind
Wind Speed 3 mph   
Max Wind Speed 9 mph   
Max Gust Speed 12 mph   
Visibility 6 miles   
Events Fog , Snow   

Key: T is trace of precipitation, MM is missing value
Source: NWS Daily Summary
Time(PST)TemperatureDew PointHumidity Pressure Visibility Wind DirectionWind SpeedGust SpeedPrecipitationEvents Conditions
12:08 AM 15.8°F 12.2°F 86% 29.97 in 1.8 miles Calm Calm - N/A   Clear
12:13 AM 15.8°F 14.0°F 93% 29.97 in 3.0 miles Calm Calm - N/A   Clear
12:18 AM 15.8°F 15.8°F 100% 29.97 in 2.0 miles Calm Calm - N/A   Partly Cloudy
12:21 AM 15.8°F 15.8°F 100% 29.97 in 1.0 miles Calm Calm - N/A   Mist
12:25 AM 15.8°F 15.8°F 100% 29.97 in 0.8 miles Calm Calm - N/A   Clear
12:31 AM 12.2°F 10.4°F 92% 29.97 in 2.0 miles Calm Calm - N/A   Clear
12:38 AM 15.8°F 12.2°F 86% 29.97 in 10.0 miles Calm Calm - N/A   Clear
12:53 AM 15.1°F 12.9°F 91% 30.05 in 8.0 miles Calm Calm - N/A   Mostly Cloudy
1:53 AM 18.0°F 17.1°F 96% 30.06 in 10.0 miles Calm Calm - N/A   Overcast
2:53 AM 21.0°F 19.0°F 92% 30.06 in 10.0 miles Calm Calm - N/A   Overcast
3:53 AM 23.0°F 21.0°F 92% 30.06 in 10.0 miles Calm Calm - N/A   Overcast
4:53 AM 23.0°F 21.0°F 92% 30.05 in 10.0 miles ENE 4.6 mph - N/A   Overcast
5:53 AM 19.9°F 18.0°F 92% 30.06 in 10.0 miles Calm Calm - N/A   Mostly Cloudy
6:53 AM 21.9°F 19.9°F 92% 30.06 in 10.0 miles Calm Calm - N/A   Overcast
7:18 AM 21.2°F 21.2°F 100% 29.98 in 10.0 miles NNW 4.6 mph - N/A   Overcast
7:28 AM 23.0°F 21.2°F 93% 29.98 in 10.0 miles North 3.5 mph - N/A   Overcast
7:53 AM 24.1°F 23.0°F 96% 30.08 in 10.0 miles Calm Calm - N/A   Overcast
8:53 AM 27.0°F 25.0°F 92% 30.07 in 10.0 miles Calm Calm - N/A   Overcast
9:00 AM 26.6°F 24.8°F 93% 29.99 in 8.0 miles Calm Calm - 0.00 in Snow Light Snow
9:53 AM 28.9°F 26.1°F 89% 30.07 in 10.0 miles Calm Calm - 0.00 in   Overcast
10:53 AM 30.0°F 27.0°F 88% 30.06 in 8.0 miles Calm Calm - N/A   Overcast
11:03 AM 30.2°F 26.6°F 86% 29.97 in 2.5 miles Calm Calm - 0.00 in Snow Light Snow
11:10 AM 30.2°F 26.6°F 86% 29.97 in 0.8 miles Calm Calm - 0.00 in Snow Light Snow
11:53 AM 30.0°F 28.9°F 96% 30.04 in 0.5 miles Calm Calm - 0.02 in Fog , Snow Snow
12:27 PM 30.2°F 28.4°F 93% 29.95 in 0.8 miles Calm Calm - 0.03 in Snow Light Snow
12:53 PM 30.0°F 30.0°F 100% 30.03 in 1.0 miles Calm Calm - 0.03 in Snow Light Snow
1:02 PM 30.2°F 30.2°F 100% 29.94 in 0.8 miles Calm Calm - 0.01 in Snow Light Snow
1:26 PM 30.2°F 30.2°F 100% 29.94 in 1.0 miles Calm Calm - 0.02 in Snow Light Snow
1:35 PM 30.2°F 30.2°F 100% 29.94 in 0.8 miles Calm Calm - 0.02 in Snow Light Snow
1:53 PM 30.9°F 30.0°F 96% 30.02 in 0.8 miles Calm Calm - 0.03 in Snow Light Snow
2:20 PM 32.0°F 30.2°F 93% 29.94 in 1.0 miles Calm Calm - 0.01 in Snow Light Snow
2:27 PM 32.0°F 30.2°F 93% 29.94 in 1.0 miles Calm Calm - 0.01 in Snow Light Snow
2:53 PM 33.1°F 30.9°F 92% 30.01 in 2.5 miles South 5.8 mph - 0.01 in Snow Light Snow
3:01 PM 33.8°F 30.2°F 87% 29.94 in 6.0 miles SSE 8.1 mph - 0.00 in   Overcast
3:25 PM 33.8°F 30.2°F 87% 29.94 in 10.0 miles SSE 6.9 mph - 0.00 in   Overcast
3:51 PM 33.8°F 30.2°F 87% 29.94 in 10.0 miles SSE 6.9 mph - 0.00 in   Overcast
3:53 PM 33.1°F 30.9°F 92% 30.01 in 10.0 miles SSE 8.1 mph - 0.00 in   Overcast
4:08 PM 33.8°F 30.2°F 87% 29.95 in 10.0 miles SSE 5.8 mph - N/A   Overcast
4:53 PM 32.0°F 30.9°F 96% 30.01 in 10.0 miles SE 5.8 mph - N/A   Overcast
5:53 PM 30.9°F 30.9°F 100% 30.02 in 4.0 miles Calm Calm - N/A   Scattered Clouds
6:10 PM 30.2°F 30.2°F 100% 29.94 in 2.0 miles Calm Calm - N/A   Partly Cloudy
6:21 PM 30.2°F 28.4°F 93% 29.94 in 4.0 miles Calm Calm - N/A   Mostly Cloudy
6:42 PM 28.4°F 28.4°F 100% 29.95 in 6.0 miles ESE 3.5 mph - N/A   Overcast
6:53 PM 30.9°F 30.0°F 96% 30.02 in 9.0 miles ESE 3.5 mph - N/A   Overcast
7:53 PM 32.0°F 30.9°F 96% 30.01 in 10.0 miles SE 4.6 mph - N/A   Overcast
8:53 PM 33.1°F 30.9°F 92% 30.01 in 10.0 miles SSE 6.9 mph - N/A   Overcast
9:53 PM 32.0°F 30.0°F 92% 30.01 in 10.0 miles SSE 6.9 mph - N/A   Overcast
11:29 PM 28.4°F 28.4°F 100% 29.94 in 10.0 miles SE 6.9 mph - N/A   Mostly Cloudy
11:53 PM 32.0°F 30.0°F 92% 30.00 in 10.0 miles SSE 6.9 mph - N/A   Overcast
Moon Phase
Feb. 21 Feb. 25 Mar. 04 Mar. 11 Mar. 19
Sunrise:06:44 AM (PST) Moon Rise:01:30 PM (PST)2/21
Sunset:05:22 PM (PST) Moon Set:04:04 AM (PST)2/21

Copyright © 2014 The Weather Underground, Inc.